Tracking 31027 objects as of 19-Jul-2025
HD Live streaming from Space Station
objects crossing your sky now

STARLINK-11510

Track STARLINK-11510 now!
10-day predictions
STARLINK-11510 is classified as:


NORAD ID: 62516
Int'l Code: 2025-004F
Perigee: 361.8 km
Apogee: 365.0 km
Inclination: 43.0 °
Period: 91.7 minutes
Semi major axis: 6734 km
RCS: Unknown
Launch date: January 8, 2025
Source: United States (US)
Launch site: AIR FORCE EASTERN TEST RANGE (AFETR)
Your satellite tracking list
Your tracking list is empty




NASA's NSSDC Master Catalog

Two Line Element Set (TLE):
1 62516U 25004F   25199.56472923  .00184726  00000-0  14066-2 0  9992
2 62516  43.0002  42.2350 0002338 248.2887 111.7732 15.70919331 31300
Source of the keplerian elements: AFSPC